STARLINK-33825, 63505

Orbit data source: Space-Track

STARLINK-33825, 63505 is a payload satellite owned by SpaceX/Seattle (US) in LEO that was launched on Mon, 07 Apr 2025 UTC via an FALCON 9 launch vehicle from the Air Force Western Test Range (AFWTR). Payload-class satellites include a variety of spacecraft equipped with specific instruments for various scientific and technological missions. These include communications satellites like Starlink; space stations such as the ISS; scientific satellites like the Hubble; Earth observation satellites from companies like Planet Labs, Umbra, and HawkEye 360; GPS; miniature CubeSats for education and research; and military/defense satellites.

Loading next visibility...
Identifier
63505, 2025-071N
Orbit
LEO
Country
Flag of USUS
Related business
Manufacturer
SpaceX/Seattle
Mission
Operational Commercial Communications
Bus & Motor
STARLINK V2MO, Unknown motor
Mass
575 kg wet, ~530 kg dry
Launch date (UTC)
2025-04-07 (1 year ago)
Launch vehicle
FALCON 9
Launch site
Air Force Western Test Range (AFWTR)
Object type
Payload
Rocket body
Debris
Shape & HBR
Box + 1 Pan, 17.7 m
Radar Cross Section
41.120 m², Large (>1 m²)

Expand to show TLE details & history
Last TLE update: 23 hours ago

TLE from 23 hours ago
0 STARLINK-33825
1 63505U 25071N   26262.45838220  .00017263  00000-0  52084-3 0  9995
2 63505  53.1594 318.6895 0001216  94.6661 265.4480 15.34402622 82457
Epoch: 2026-09-19T11:00Z
TLE epoch observation values (Epoch: 2026-09-19T11:00:04.222Z)
Latitude
-0.00004°
Longitude
155.30525°
Altitude
463.663 km
Speed
7.636 km/s
True Right ascension
21h 14m 45s
True Declination
0° 00' 00"
Sunlit
Object was in full shadow at epoch
Visualization orbit readout
Latitude
Unknown
Longitude
Unknown
Altitude
Unknown
Speed
Unknown
Apparent Right ascension
Unknown
Apparent Declination
Unknown
Sunlit
N/A
Visualization observer readout
Local Sidereal Time
02:38:02
Azimuth
Unknown
Elevation
Unknown
Doppler factor
Unknown
Orbital elements
Apogee altitude
463.784 km
Perigee altitude
462.121 km
Semi-major axis
6,841.089 km
Eccentricity
0.00012
Inclination
53.1594°
RAAN
318.6895°
Arg. of periapsis
94.6661°
True anomaly
265.43411°
Mean anomaly
265.448°
Eccentric anomaly
265.44105°
Mean motion
3.83579 °/min
Orbital period
93.85 mins
BSTAR
0.00052084
Loading maneuver chart data...
Computing Atmospheric mass density...
Loading historical data...
Loading historical data...
Loading historical data...
Loading historical data...
Loading historical data...
Loading historical data...
Loading historical data...

Documentation

Showing up to 5 results
|